This is the latest recevied weather packets stored in our database for station/object KE4EST. If no packets are shown the sender has not sent any weather packets the latest 10 day(s).
| Time | Temp. | Humidity | Pressure | Rain* | Wind** | Luminosity | Snow |
|---|---|---|---|---|---|---|---|
| 1778183950 | 15° C | 85% | 1013.5 hPa | 0 mm | - | 46 W/m² | - |
| 1778183649 | 15.56° C | 86% | 1013.2 hPa | 0 mm | - | 131 W/m² | - |
| 1778183345 | 15.56° C | 85% | 1013.2 hPa | 0 mm | - | 100 W/m² | - |
| 1778183042 | 16.11° C | 84% | 1013.3 hPa | 0 mm | - | 93 W/m² | - |
| 1778182738 | 16.67° C | 83% | 1013.4 hPa | 0 mm | - | 94 W/m² | - |
| 1778182435 | 17.22° C | 81% | 1013.1 hPa | 0 mm | - | 137 W/m² | - |
| 1778182131 | 17.78° C | 80% | 1013 hPa | 0 mm | - | 805 W/m² | - |
| 1778181828 | 17.78° C | 80% | 1013.1 hPa | 0 mm | - | 760 W/m² | - |
| 1778181524 | 17.22° C | 85% | 1013 hPa | 0 mm | - | 295 W/m² | - |
| 1778181220 | 18.33° C | 79% | 1013 hPa | 0 mm | - | 163 W/m² | - |
| 1778180918 | 17.78° C | 80% | 1013.2 hPa | 0 mm | - | 679 W/m² | - |
| 1778180616 | 18.89° C | 77% | 1012.8 hPa | 0 mm | - | 680 W/m² | - |
| 1778180315 | 18.33° C | 77% | 1012.8 hPa | 0 mm | - | 697 W/m² | - |
| 1778180011 | 18.33° C | 79% | 1012.8 hPa | 0 mm | - | 692 W/m² | - |
| 1778179708 | 17.78° C | 83% | 1012.7 hPa | 0 mm | - | 696 W/m² | - |
| 1778179406 | 17.78° C | 82% | 1012.7 hPa | 0 mm | - | 427 W/m² | - |
| 1778179103 | 17.78° C | 83% | 1012.8 hPa | 0 mm | - | 710 W/m² | - |
| 1778178800 | 17.78° C | 81% | 1013 hPa | 0 mm | - | 716 W/m² | - |
| 1778178497 | 17.78° C | 86% | 1012.8 hPa | 0 mm | - | 724 W/m² | - |
| 1778178193 | 16.67° C | 84% | 1013.1 hPa | 0 mm | - | 516 W/m² | - |
| 1778177889 | 17.22° C | 82% | 1013.3 hPa | 0 mm | - | 275 W/m² | - |
| 1778177585 | 17.78° C | 83% | 1012.9 hPa | 0 mm | - | 715 W/m² | - |
| 1778177282 | 18.33° C | 84% | 1013.2 hPa | 0 mm | - | 626 W/m² | - |
| 1778176979 | 17.78° C | 85% | 1013.3 hPa | 0 mm | - | 768 W/m² | - |
| 1778176674 | 17.22° C | 85% | 1013.2 hPa | 0 mm | - | 438 W/m² | - |
* Rain latest hour (hover to see other rain measurements)
** Current wind speed in m/s (hover to see current wind gust speed)